User: anonymous   Login
Location: Unspecified
(0.0000°N, 0.0000°E)
Time: 01:08:58
(UTC+00:00)
Language:

LIBERTAD 1 - Orbit

View from above orbital plane
View from above orbital plane
View from above satellite
View from above satellite

Ground track
Ground track

The orbit data is extracted from the following two-line orbital elements,

1 31128U 07012M   21023.32624173  .00000144  00000-0  41002-4 0  9991
2 31128  98.2196 323.1695 0097588  78.3771 282.8360 14.56263962730958
Epoch (UTC): 23 January 2021 07:49:47
Eccentricity: 0.0097588
inclination: 98.2196°
perigee height: 636 km
apogee height: 774 km
right ascension of ascending node: 323.1695°
argument of perigee: 78.3771°
revolutions per day: 14.56263962
mean anomaly at epoch: 282.8360°
orbit number at epoch: 73095

The dashed part of the orbit path shows where the satellite is in the earth's shadow,  

DLR